Theta_e
327 329 331 333 334 336 338 339 340 340 341 341 342 344 345 346 347 347 347 347 347 347 347 348 348 348 348 348 347 346 343 341 339 336 334 333 333 332 331 332 333 332 331 332 332 333 335 338 338 338 337 339 337 337 337 339 338 338 337 338 337 337 335
326 328 331 333 334 336 338 340 341 341 342 342 343 344 345 346 347 347 347 347 347 347 348 348 348 348 348 348 346 344 341 339 338 339 334 333 336 333 332 332 333 331 331 332 332 334 336 337 337 337 336 339 338 336 336 338 338 337 337 336 335 335 336
326 328 330 332 334 335 337 339 341 342 343 343 344 344 345 346 348 348 348 347 347 348 348 348 349 348 348 348 345 342 341 338 337 336 332 331 332 332 333 333 332 332 332 332 333 335 337 336 336 336 336 336 338 336 336 336 338 337 336 336 336 336 334
326 327 330 333 335 336 338 339 341 342 344 344 344 345 346 347 348 349 349 348 347 348 347 347 348 348 347 347 345 341 339 337 336 335 333 332 332 333 332 332 332 332 332 332 334 335 337 336 336 334 340 335 336 336 335 335 336 336 336 335 334 334 334
326 328 329 331 333 335 337 338 340 342 343 344 345 346 347 348 349 349 349 349 349 348 348 348 349 349 348 347 345 342 339 336 335 334 332 333 334 333 332 331 331 331 332 332 333 336 337 335 334 334 335 335 334 334 334 334 334 335 335 335 334 334 334
324 326 328 330 333 335 337 339 340 342 343 343 344 345 347 347 348 348 349 349 349 349 349 349 348 349 346 345 344 341 338 336 334 334 332 333 333 332 332 332 331 331 330 331 334 334 334 335 334 334 333 334 333 333 333 333 334 334 335 334 334 333 334
324 326 328 330 332 334 336 338 340 342 343 344 345 346 347 347 347 348 349 348 349 348 348 348 348 348 347 344 342 341 336 333 333 332 333 333 332 332 332 332 333 331 331 332 332 333 332 333 333 334 334 333 335 334 333 333 333 333 333 333 333 333 333
325 326 328 330 332 333 335 337 339 341 343 344 344 344 345 346 347 347 347 348 349 349 348 348 348 347 347 344 340 338 334 333 333 333 333 332 332 332 331 331 333 332 332 330 331 333 332 332 333 334 333 332 332 334 334 333 333 332 332 332 331 332 333
325 327 328 330 331 333 335 337 338 340 341 342 343 344 344 345 346 346 347 348 348 348 348 349 348 348 347 342 337 336 335 334 333 332 332 332 331 331 331 331 332 332 331 330 330 332 332 332 332 333 333 332 333 332 332 332 332 332 331 331 331 332 332
324 325 327 329 331 333 335 336 338 338 339 341 342 343 343 344 345 346 347 347 348 348 348 349 348 347 344 339 336 335 335 334 333 332 331 331 331 331 333 332 332 333 331 330 330 330 332 332 331 332 331 331 332 331 331 331 331 331 331 331 331 331 331
323 325 326 327 329 331 333 334 335 337 338 339 341 342 343 344 344 345 346 347 347 348 349 349 349 346 342 337 335 335 335 334 333 332 331 332 332 332 332 332 332 333 331 330 330 330 330 332 332 331 330 330 330 330 330 331 331 331 331 331 332 331 332
322 324 325 326 328 328 330 333 334 336 337 339 340 341 342 343 344 344 345 346 348 348 348 348 348 345 340 336 335 334 334 334 333 332 331 332 332 333 332 333 332 332 333 332 330 330 330 329 330 332 330 330 330 330 330 331 331 331 331 331 332 332 332
322 323 324 325 326 328 329 330 332 334 336 337 339 340 341 341 342 343 344 345 346 348 348 348 346 342 337 335 335 334 334 334 333 333 333 334 333 333 333 332 333 332 332 333 331 330 330 330 329 331 332 331 330 330 330 331 331 331 331 331 332 332 332
328 322 324 324 325 325 327 329 330 332 333 335 337 339 340 341 342 342 343 344 345 347 347 346 343 338 337 335 335 334 334 334 335 334 334 335 334 333 333 333 333 332 332 333 332 331 330 330 330 330 331 331 331 331 332 331 331 330 330 331 331 331 331
320 321 321 322 323 325 325 326 328 330 331 333 335 336 338 339 340 341 342 343 345 346 346 345 341 337 336 335 335 335 335 335 335 335 335 335 334 333 333 333 333 333 332 332 332 332 331 332 331 330 330 331 331 331 332 330 330 330 330 329 329 330 329
319 320 321 321 322 323 325 326 327 329 330 331 333 335 336 337 338 339 341 342 343 345 344 342 339 336 335 335 335 335 335 335 335 334 335 335 334 333 333 333 334 334 332 332 333 332 333 331 331 330 330 329 329 330 330 330 331 333 331 331 331 329 328
319 320 320 322 322 323 324 325 326 327 329 330 331 333 335 336 338 339 340 341 343 344 341 340 337 336 335 335 335 336 336 335 335 334 334 334 334 333 332 333 333 333 333 333 333 331 331 331 330 329 329 328 328 328 329 330 331 330 326 327 331 332 330
318 319 320 320 321 322 323 324 325 326 328 329 331 332 333 334 335 337 338 340 342 342 339 338 336 335 335 335 335 335 336 335 335 333 332 331 332 332 333 333 333 332 332 332 332 331 331 330 330 330 329 329 328 329 330 330 330 324 324 326 327 330 333
318 319 320 320 322 324 324 325 326 327 328 330 331 332 333 335 335 336 338 340 342 341 337 337 335 335 335 335 335 335 335 335 334 333 331 328 329 331 333 332 332 331 331 331 332 332 331 330 330 329 329 329 329 328 330 330 327 324 324 324 324 325 328
319 320 320 321 323 325 325 327 328 328 329 331 333 335 336 337 336 337 339 341 340 338 337 336 335 335 335 335 335 334 333 333 333 330 327 327 329 330 331 331 331 330 330 330 330 330 330 330 329 329 329 329 329 329 330 330 327 323 321 321 321 322 325
320 322 322 323 325 327 328 329 330 330 330 330 332 334 335 335 337 337 338 338 338 338 336 335 335 334 334 334 334 333 332 332 332 328 327 328 328 328 330 331 331 329 329 330 330 330 330 330 329 329 330 330 330 329 329 330 325 322 321 319 318 319 324
321 323 324 326 327 329 329 330 331 332 332 334 333 334 335 336 336 335 336 337 337 337 336 335 334 334 334 333 333 332 332 332 330 328 328 330 329 329 329 331 331 330 331 332 332 332 331 331 330 330 330 330 330 329 330 331 323 321 319 317 317 320 327
323 325 326 327 329 330 331 333 334 334 335 334 334 334 335 334 334 334 334 335 335 336 335 334 333 333 333 334 333 332 332 330 328 328 328 329 328 328 329 330 331 331 332 331 331 331 330 330 330 331 330 330 330 330 330 331 325 317 316 315 315 320 325
320 322 322 324 326 328 331 333 334 335 335 333 333 333 333 332 333 333 333 333 334 334 333 333 333 333 333 333 333 332 331 330 329 329 329 329 327 329 330 332 332 332 334 332 331 330 330 331 330 331 331 330 330 331 330 330 324 315 312 312 314 320 323
330 330 329 327 328 330 332 333 334 333 332 332 331 329 331 331 332 332 332 332 333 333 333 332 333 333 333 334 333 332 331 331 330 330 329 329 329 330 331 332 332 333 334 333 332 331 332 332 330 330 330 331 331 332 331 329 322 311 311 311 311 320 322
330 331 331 331 331 331 332 334 334 331 330 330 328 329 330 331 331 332 331 332 332 332 332 332 333 334 335 335 333 332 331 331 331 331 330 330 330 331 332 333 333 332 332 332 332 331 331 331 331 329 329 330 332 332 331 327 326 323 311 309 311 317 323
332 332 331 331 332 335 330 329 329 328 328 327 328 329 330 331 331 330 331 330 330 330 332 334 334 334 334 334 333 332 332 331 332 331 331 331 331 332 333 333 332 331 331 331 331 330 330 330 330 329 327 327 328 328 326 326 325 321 309 307 309 312 318
332 333 333 336 335 331 328 328 327 327 327 327 329 330 330 330 330 329 329 329 329 331 332 333 333 333 333 333 333 332 332 332 333 333 333 333 332 332 332 331 332 331 331 331 330 329 328 327 328 327 325 325 325 325 324 327 326 319 310 308 307 308 312
330 330 329 329 329 333 329 326 325 325 326 328 329 329 329 330 330 330 330 328 330 330 331 331 332 332 332 332 332 333 333 333 334 333 334 334 333 331 329 329 329 329 329 328 327 326 325 326 326 325 323 322 321 320 322 324 325 318 315 307 304 303 306
327 328 329 331 330 330 329 325 326 325 326 327 327 328 329 330 329 329 329 328 328 329 331 330 330 331 331 333 332 332 332 332 333 333 333 332 331 331 330 329 329 329 328 328 326 325 324 324 325 325 323 322 321 319 321 323 325 317 314 309 303 301 301
327 328 328 328 330 333 328 327 325 325 325 326 327 327 328 329 330 331 327 326 329 329 329 329 329 330 330 329 330 330 331 332 332 332 331 332 331 329 329 329 329 327 327 326 325 324 324 324 324 323 321 321 321 320 320 321 320 319 315 310 306 303 303
327 328 328 328 329 332 329 327 326 325 325 325 326 327 328 328 330 329 327 328 330 329 329 329 329 329 328 329 329 330 331 331 331 332 332 332 331 330 331 330 328 327 325 324 324 324 324 323 321 320 320 321 321 320 320 319 318 317 318 317 314 310 307
327 327 328 328 329 332 328 327 325 325 325 325 326 326 327 327 329 328 328 329 329 329 329 329 329 329 329 329 330 330 331 331 330 330 330 330 330 330 330 330 329 327 325 324 323 321 321 321 320 320 319 319 320 321 320 318 316 316 315 312 312 313 312
326 327 326 327 330 330 327 326 325 325 325 325 325 327 329 329 329 329 329 329 329 329 329 330 330 329 328 328 329 329 330 330 335 331 328 329 329 328 328 326 326 325 324 322 321 320 320 321 322 321 320 320 320 320 319 317 315 314 312 309 310 310 307
325 325 325 326 328 328 326 326 326 326 325 325 326 328 329 329 329 329 329 329 329 329 329 329 330 328 327 327 328 328 331 329 332 330 328 318 311 306 306 310 314 320 318 313 315 321 322 322 322 324 323 323 320 319 317 317 315 316 308 311 305 307 307
324 324 324 327 327 326 327 328 326 326 326 325 326 329 329 328 328 329 329 329 329 330 330 330 328 327 327 327 327 327 329 327 326 323 319 315 311 308 305 301 296 300 312 311 308 304 301 305 321 324 322 318 314 316 321 320 320 304 298 297 295 295 297
325 325 326 327 325 324 325 325 328 326 326 325 327 329 329 328 328 328 329 329 329 330 330 329 328 327 327 326 324 324 325 325 322 319 316 314 312 311 309 305 303 294 294 299 301 298 297 297 302 308 311 316 310 305 303 304 298 295 294 293 293 292 292
325 325 327 328 326 325 325 325 326 326 326 326 328 329 328 328 328 328 328 328 328 328 328 328 328 326 324 324 324 327 329 323 322 318 315 312 312 313 312 310 309 307 297 293 294 295 294 295 297 299 300 302 306 303 303 298 294 293 293 293 293 292 292
Wind_Speed
12 13 14 14 14 16 16 16 16 14 14 14 14 14 14 12 13 12 12 13 14 13 12 12 12 10 11 10 9 9 9 9 8 9 8 8 8 8 8 7 7 7 7 8 7 7 7 6 7 7 6 6 6 6 5 5 5 5 5 4 4 4 5
14 14 14 14 15 16 16 15 14 13 13 13 13 14 13 14 13 13 14 14 15 15 13 12 12 11 11 10 8 9 9 10 9 7 7 6 5 6 7 8 8 8 8 7 7 6 6 7 7 7 6 5 6 6 6 6 6 6 5 5 5 5 4
14 15 15 15 15 15 16 13 13 14 14 13 14 13 15 16 16 17 15 14 15 14 11 13 13 12 10 10 10 10 10 9 8 8 9 8 7 8 6 7 7 8 8 7 6 6 6 7 6 6 6 6 6 6 6 6 6 6 6 5 5 5 5
16 17 17 17 16 16 15 16 17 16 15 16 17 17 17 17 16 14 14 14 15 13 14 14 13 12 12 12 11 11 10 9 9 9 8 7 8 7 7 6 6 5 6 6 6 6 6 6 7 6 6 6 6 6 6 6 5 5 5 5 5 5 5
15 15 14 14 15 13 12 14 14 15 16 17 17 17 16 15 13 11 12 13 14 16 17 13 9 9 9 10 9 8 10 10 8 7 7 7 7 8 8 8 7 7 7 6 5 5 6 6 6 6 5 5 6 5 6 5 5 5 5 4 5 4 5
15 14 14 14 13 14 15 16 16 18 18 18 17 17 16 15 13 15 15 14 13 12 9 9 12 12 12 11 9 9 8 7 7 8 9 9 10 8 8 8 7 6 5 7 6 6 6 6 6 6 6 5 5 5 5 5 5 5 5 4 5 4 4
12 14 14 14 15 15 16 15 15 16 15 16 15 12 10 10 14 15 13 13 14 14 14 14 13 12 12 11 12 11 10 8 9 10 9 9 9 8 7 5 5 6 6 4 5 5 5 5 5 5 5 5 5 6 6 6 6 5 4 5 5 4 5
13 13 14 15 16 16 15 14 14 14 13 10 9 11 13 14 14 14 15 16 16 15 13 14 13 14 13 10 9 10 11 13 12 11 9 10 8 9 8 6 5 6 4 6 5 5 6 6 5 5 5 5 6 6 6 6 6 5 5 5 6 6 4
12 15 15 16 16 14 14 14 14 15 16 17 18 18 18 15 15 16 17 16 14 15 16 15 14 11 9 9 10 12 13 12 11 11 11 10 8 8 8 8 7 5 6 6 5 5 5 6 6 6 6 6 6 6 6 7 7 6 5 6 6 6 6
11 10 12 13 12 11 12 11 12 11 12 13 13 12 13 14 15 15 14 15 14 15 16 14 11 11 10 10 13 14 12 12 11 12 11 12 10 12 11 10 9 7 7 6 5 6 6 5 6 5 6 7 7 7 7 7 7 7 6 7 7 7 7
10 12 11 10 11 11 9 10 12 13 14 14 14 14 14 14 14 14 13 13 14 15 15 12 9 10 11 12 13 12 12 11 11 13 13 13 11 13 11 10 10 8 7 7 6 6 5 5 4 5 6 7 8 8 8 8 8 7 7 7 6 7 7
10 10 12 11 9 8 13 14 12 11 12 12 13 14 14 14 14 14 13 14 14 13 10 11 10 10 11 12 12 12 13 11 11 14 14 13 12 13 11 10 9 9 7 8 8 6 6 7 6 6 7 8 8 8 8 8 7 8 8 7 6 6 6
11 12 11 12 13 11 6 7 12 13 13 14 14 13 13 14 14 13 13 13 13 11 9 9 10 10 12 13 14 14 14 15 16 15 16 14 13 11 11 11 11 11 11 9 8 9 9 8 8 7 8 8 8 8 8 8 7 7 7 7 7 6 6
7 5 4 4 5 8 13 13 11 12 13 12 13 12 11 11 11 12 12 13 11 8 9 9 11 13 14 15 15 15 16 16 15 14 13 13 12 12 11 10 10 9 7 7 9 10 9 8 8 9 8 9 8 8 7 7 6 7 7 7 7 7 7
10 12 8 9 9 9 9 10 11 11 11 12 10 11 12 10 10 9 10 10 8 10 12 11 12 13 14 15 15 15 13 12 12 12 9 8 10 9 8 8 7 5 6 8 10 8 8 7 8 9 9 8 7 7 6 6 7 6 7 7 7 7 7
11 11 11 11 10 10 9 9 9 9 8 7 9 11 9 10 10 11 11 9 7 9 8 11 12 13 13 14 14 11 12 14 12 11 11 10 5 3 4 7 4 3 9 10 9 8 8 7 9 9 9 8 7 7 6 6 6 7 11 8 6 6 5
12 11 10 9 8 8 8 7 6 6 8 9 9 10 10 9 8 6 6 6 8 9 10 12 12 13 14 14 13 13 14 14 14 14 14 13 9 6 8 6 7 8 9 9 7 8 8 9 10 9 8 7 7 7 7 6 5 9 9 10 10 6 5
10 8 8 8 8 7 7 8 8 9 9 8 7 6 6 6 5 5 7 7 9 10 10 11 12 13 14 14 13 14 16 16 15 14 13 12 10 9 9 10 11 12 13 11 10 9 8 9 10 8 6 5 6 7 7 6 8 10 10 10 11 9 6
7 7 9 8 9 10 10 10 9 8 7 6 8 7 7 8 9 11 11 11 10 9 11 12 13 13 14 13 14 15 16 15 14 13 13 14 13 11 11 11 11 12 12 12 11 7 8 9 7 7 6 7 8 8 7 6 8 11 12 12 11 9 7
9 7 5 6 7 8 6 6 6 7 9 10 11 13 11 11 12 11 8 8 8 11 11 12 12 13 14 13 14 14 14 13 13 12 11 11 11 10 12 11 13 12 10 9 6 8 8 6 7 6 7 8 8 8 7 7 9 12 12 10 9 9 7
9 9 10 8 7 7 9 10 9 9 8 8 7 5 5 7 6 4 6 8 10 9 11 11 12 12 12 13 12 12 12 12 11 11 11 12 11 11 11 12 11 10 9 8 8 8 7 7 7 8 8 8 8 7 8 7 11 12 9 8 9 9 7
9 9 9 9 10 9 10 10 11 11 9 5 6 6 7 7 6 7 7 7 9 9 9 10 11 11 10 11 12 12 12 12 11 11 11 11 11 12 13 12 11 9 8 7 6 5 5 6 7 8 8 7 8 8 9 7 10 7 7 8 9 7 4
12 11 10 10 10 11 8 7 6 6 6 7 7 8 7 6 7 7 7 8 7 8 9 9 11 11 12 11 11 11 12 12 12 13 14 14 13 12 13 13 11 9 6 6 5 6 7 7 8 6 7 8 8 9 8 7 4 6 6 7 7 6 4
2 2 4 7 5 5 6 6 6 6 8 9 6 5 6 8 8 8 8 7 7 8 9 10 11 10 10 11 11 12 11 12 13 13 13 12 14 14 13 11 9 7 5 5 5 6 7 6 6 6 7 9 9 9 8 5 5 8 8 9 9 7 5
6 7 6 3 6 9 7 6 7 7 7 8 8 5 6 8 9 8 8 7 8 8 9 9 8 9 12 11 10 10 11 12 13 14 14 14 15 14 12 10 8 4 4 5 5 7 6 6 6 7 6 6 6 5 7 5 4 8 9 8 8 7 4
8 7 7 7 8 6 6 6 7 7 6 6 5 6 7 8 8 8 8 6 5 6 7 9 9 8 6 6 8 9 10 11 13 13 14 14 13 11 9 6 6 6 6 6 7 7 6 6 7 8 6 5 6 6 6 6 5 7 7 7 7 6 5
7 7 9 9 8 6 8 8 9 9 8 6 5 4 4 4 5 5 4 4 5 6 5 4 4 6 7 7 8 10 10 10 12 13 12 12 11 8 6 6 7 7 7 7 6 6 6 7 7 5 5 5 4 4 4 5 7 6 9 7 6 6 5
9 11 9 8 6 7 7 8 9 9 8 6 6 6 5 6 6 5 5 5 5 5 4 5 6 6 7 8 9 10 10 10 10 9 8 7 6 5 2 1 3 4 5 5 5 6 6 5 5 5 5 4 4 4 7 7 6 6 6 7 7 6 5
8 8 6 6 7 6 7 8 8 8 6 5 6 6 6 7 7 5 5 5 5 4 5 6 6 7 7 8 8 8 8 8 8 6 4 5 6 5 3 3 4 5 5 5 4 5 6 6 7 7 6 5 3 3 3 2 4 6 5 6 7 7 6
7 6 6 6 6 5 7 7 6 7 7 6 6 6 6 6 6 5 5 4 3 5 6 7 7 7 7 6 7 7 7 7 6 6 7 8 7 7 7 7 5 2 1 3 5 5 5 5 5 6 6 5 4 4 2 2 4 6 7 6 8 6 7
4 4 3 5 5 4 6 7 8 7 8 6 6 5 5 5 7 5 6 4 5 7 7 7 7 7 7 8 8 8 8 8 8 8 8 8 7 5 8 5 4 4 5 6 5 5 6 5 5 6 6 6 6 4 4 4 3 4 6 8 8 7 6
3 3 4 4 5 6 7 7 7 8 8 6 5 5 5 5 6 7 6 5 6 7 8 8 9 8 9 9 9 10 10 10 10 9 9 9 9 9 5 5 6 7 6 6 6 6 6 6 6 7 7 7 4 3 3 4 3 4 4 5 5 4 5
5 3 1 1 2 5 6 7 7 7 8 7 4 5 5 6 5 7 7 7 6 7 7 8 9 9 8 8 8 8 8 10 7 6 6 6 6 6 6 7 6 5 4 4 4 5 6 6 7 7 6 7 6 3 4 3 3 4 3 2 2 2 2
2 2 3 1 1 3 5 6 7 7 8 8 7 6 6 6 6 6 6 6 6 6 7 7 7 8 7 8 7 7 8 8 11 10 7 7 7 6 5 2 3 4 5 7 8 7 7 8 7 8 7 6 5 5 5 4 4 4 4 4 3 2 2
1 1 1 2 2 3 5 6 7 7 8 7 6 6 6 6 5 5 6 5 5 6 7 7 7 7 7 7 7 7 7 8 7 6 6 5 6 6 5 2 2 3 3 0 1 5 7 8 7 6 5 6 7 7 6 5 7 7 4 6 5 5 4
1 3 4 4 5 6 5 5 7 7 7 6 6 6 6 6 5 5 6 6 7 8 9 9 9 9 9 8 9 8 7 5 4 4 5 5 4 5 6 9 7 4 1 2 3 3 6 3 5 4 6 6 3 2 4 6 6 9 11 9 7 6 5
3 3 2 2 3 3 3 4 5 7 7 7 6 6 6 6 6 6 6 7 8 9 10 10 9 9 9 7 6 5 6 6 6 6 5 4 5 5 6 5 5 9 8 5 3 4 2 4 4 7 8 8 6 4 8 9 12 12 10 9 8 8 8
3 2 1 0 1 3 4 5 6 7 8 7 7 6 6 7 7 7 8 8 8 8 9 9 9 9 7 5 5 5 4 4 5 5 5 4 5 5 5 5 5 4 9 9 8 10 10 7 7 9 10 12 13 9 4 6 9 10 9 8 8 8 7
Wind_Direction
200 199 200 198 196 199 201 200 195 191 191 191 193 195 194 193 195 190 195 195 200 202 197 192 193 191 194 194 190 188 186 182 182 183 183 182 176 168 169 179 174 180 175 175 185 180 192 175 178 184 180 184 191 198 203 202 205 210 209 205 212 219 227
195 197 201 200 202 203 203 199 194 190 189 191 193 195 194 196 194 196 199 198 201 203 197 194 193 195 192 192 187 188 186 188 185 182 174 166 165 166 170 172 177 180 182 186 176 190 173 182 175 178 185 190 200 202 205 208 205 208 205 204 206 225 223
193 195 198 199 203 203 201 195 194 192 190 191 194 194 197 198 197 199 197 197 201 203 197 195 197 192 189 187 186 193 191 186 183 175 171 171 166 167 176 176 181 177 186 177 174 178 185 176 184 180 185 193 202 205 208 209 210 208 208 199 205 218 221
193 195 198 198 201 202 197 195 192 192 193 193 195 198 200 202 200 200 198 199 200 199 202 203 194 191 189 190 191 189 192 189 182 174 167 158 163 166 168 182 182 174 161 178 183 176 182 181 184 189 190 190 202 206 203 210 215 214 215 201 213 223 234
196 194 193 195 200 197 196 197 196 193 195 197 199 202 202 202 197 198 202 204 201 203 206 199 188 189 194 195 193 188 188 183 175 161 153 157 162 165 174 177 178 173 179 175 176 177 177 185 192 191 193 191 204 204 211 216 225 222 224 209 225 227 239
190 189 195 194 196 198 198 198 195 194 196 196 199 200 202 196 194 200 203 200 205 209 199 182 189 191 195 193 186 187 183 175 155 154 161 167 164 172 177 176 170 168 167 188 179 184 182 184 193 192 192 192 200 211 218 223 227 219 218 207 221 221 235
185 190 192 193 197 199 199 198 196 198 199 202 201 203 197 193 199 206 199 202 204 202 197 196 194 190 197 187 192 183 169 147 155 165 169 170 168 164 167 162 166 171 186 167 188 177 181 192 198 197 198 199 206 213 220 225 232 216 206 210 227 226 225
185 189 193 194 199 199 197 196 195 197 198 197 191 195 195 200 201 200 200 204 203 202 200 199 195 196 193 185 175 171 164 171 171 169 167 166 163 167 153 147 173 186 165 184 196 177 191 198 202 200 198 203 217 221 222 227 233 222 200 214 225 237 210
191 190 188 197 200 198 196 192 190 191 191 190 193 197 198 199 200 202 205 204 201 200 204 200 200 191 175 171 175 181 180 168 167 164 165 158 163 160 152 157 175 176 179 193 194 194 200 204 201 201 199 208 219 223 228 228 233 226 204 218 220 230 235
190 192 202 204 198 195 193 187 185 186 189 195 199 201 201 202 205 207 207 204 201 204 205 200 191 180 170 170 181 181 174 173 165 163 163 161 164 163 171 170 167 175 180 194 193 199 212 209 207 202 199 207 219 223 229 232 232 233 214 219 215 222 233
194 199 199 196 193 191 181 177 183 190 192 194 198 201 201 204 207 207 208 204 204 209 205 195 181 173 173 176 179 176 178 171 164 169 173 171 169 177 181 172 160 158 182 190 202 209 212 222 217 211 205 209 217 221 223 226 227 229 231 226 220 223 229
197 195 199 194 186 173 186 189 187 187 191 195 200 201 201 204 206 207 207 208 207 209 193 187 180 172 165 174 172 179 180 167 168 177 177 174 175 179 179 168 162 156 180 190 201 208 207 213 221 217 218 215 217 219 223 223 222 223 229 230 221 219 224
199 196 194 188 188 189 168 173 189 191 192 197 199 200 202 204 206 206 207 210 208 202 186 179 169 160 165 172 179 183 182 176 182 180 181 179 178 175 174 166 152 166 191 188 192 205 213 213 218 223 222 221 218 222 223 223 221 223 225 226 219 214 214
188 193 189 168 165 170 186 189 186 189 194 196 200 201 206 207 206 207 205 211 204 182 171 172 165 166 173 178 186 187 186 186 186 181 179 177 179 182 179 169 168 172 172 178 194 208 209 216 218 225 220 221 218 223 222 222 222 221 220 217 212 205 212
190 202 187 183 190 187 183 185 188 192 192 198 196 198 204 204 206 207 211 211 187 180 182 169 165 171 177 183 188 192 183 178 184 182 157 171 180 178 182 170 156 143 181 203 211 199 202 218 227 229 226 223 220 224 218 213 216 212 208 205 208 207 220
199 200 191 189 191 190 187 189 188 189 184 184 191 200 199 203 205 205 208 202 173 178 169 160 171 172 180 187 189 179 176 181 183 173 161 181 154 136 85 60 55 203 227 221 211 195 193 210 225 230 226 219 217 216 210 213 214 216 211 208 208 213 228
202 198 192 195 184 181 182 181 174 164 176 190 194 197 201 204 206 204 199 173 171 174 169 168 170 177 180 187 182 180 178 181 185 180 178 175 139 102 101 134 187 205 227 225 212 215 212 217 225 226 223 214 205 206 213 216 218 222 222 223 227 227 228
198 190 193 191 178 167 170 173 172 178 187 190 188 185 192 196 187 178 194 173 176 172 167 171 173 178 185 185 180 180 183 188 184 180 177 170 155 127 146 185 197 205 214 216 214 218 217 223 228 229 218 211 210 214 215 218 223 225 228 230 232 228 230
184 190 200 180 172 179 180 179 179 176 171 168 176 179 189 181 183 199 194 186 181 157 170 176 178 181 185 184 184 185 187 186 182 178 176 174 169 165 179 201 208 211 215 219 216 217 225 228 227 224 209 211 212 217 218 222 225 223 224 227 230 229 222
192 189 175 176 179 171 164 153 158 169 173 178 188 193 193 187 195 204 187 171 155 167 175 175 183 184 187 185 188 186 182 181 178 173 165 160 164 174 196 204 211 213 216 222 217 222 234 234 223 217 212 213 213 216 220 222 230 224 223 224 225 223 208
174 170 174 168 166 164 166 172 176 182 189 199 191 177 161 193 200 154 152 160 167 173 171 180 180 187 188 188 186 180 178 175 171 158 150 161 175 196 197 216 219 213 209 211 216 217 222 221 218 220 219 218 215 219 223 228 228 228 220 222 226 228 213
172 158 165 180 169 181 177 176 180 182 190 171 152 170 181 183 162 157 164 160 168 172 177 176 182 187 185 188 183 178 174 169 158 150 146 154 190 205 211 215 213 212 205 210 216 209 203 215 217 222 222 220 219 220 231 233 228 215 210 216 228 217 198
165 174 174 182 179 181 179 170 155 153 137 152 164 165 174 152 149 148 147 162 171 168 173 175 184 188 188 186 177 173 170 165 159 156 160 173 196 205 211 214 213 212 199 206 204 207 206 217 218 219 219 221 219 223 232 237 199 185 199 208 195 179 183
55 105 128 128 92 103 117 118 117 130 141 144 147 149 139 144 146 147 156 166 162 169 177 186 192 184 181 183 179 173 165 163 161 163 170 175 196 210 211 215 219 214 192 198 199 216 221 217 225 220 218 219 221 215 221 228 186 188 187 177 186 187 185
80 71 62 66 121 131 131 128 128 132 127 130 129 133 133 137 140 147 164 171 173 177 181 189 182 179 187 184 172 163 161 163 167 170 174 190 203 209 208 208 208 176 163 192 200 221 215 205 219 228 221 217 211 188 194 196 184 180 175 177 187 185 162
81 78 69 77 66 77 102 114 108 94 90 91 104 123 135 135 143 157 170 174 155 172 183 191 195 190 164 147 157 160 164 170 175 181 185 195 203 211 206 172 161 175 188 196 202 212 208 209 208 221 200 177 180 187 185 157 162 168 161 167 176 168 152
88 84 79 66 61 64 67 60 65 66 66 66 74 77 87 99 99 90 83 109 152 187 188 163 133 144 155 151 158 165 173 178 186 189 194 197 192 203 192 177 186 188 196 209 204 212 210 209 213 194 151 161 143 150 166 179 166 157 154 163 167 164 154
75 66 62 68 71 74 75 67 64 65 58 65 83 84 93 102 101 100 116 126 173 185 144 131 128 131 143 159 166 172 180 186 195 196 194 186 151 163 149 309 221 205 215 217 204 203 199 183 165 149 161 157 180 169 177 195 162 137 154 155 145 143 141
72 85 77 74 63 52 73 70 71 76 92 95 91 89 95 105 110 121 127 167 180 139 128 124 128 138 145 156 166 175 183 188 184 178 152 113 122 129 158 194 217 225 218 205 180 177 181 179 168 169 164 160 202 214 215 114 127 131 133 141 127 124 115
46 47 54 53 71 83 87 90 89 83 76 74 81 91 98 115 121 130 145 165 144 131 125 128 134 137 142 147 158 162 167 172 165 128 117 128 144 173 204 219 209 196 94 161 179 181 189 192 177 161 160 166 210 203 155 154 133 130 137 143 140 131 136
92 83 72 83 82 81 69 83 86 81 74 72 87 95 108 122 131 136 145 176 156 142 137 131 133 137 140 148 152 154 154 151 151 148 147 151 139 192 225 206 140 169 191 183 171 177 189 184 173 162 161 193 203 166 186 160 136 130 145 144 138 134 135
20 50 61 84 83 87 97 94 94 96 97 84 101 112 127 135 140 144 172 175 161 150 143 140 141 145 153 158 162 162 160 158 161 164 163 161 169 185 182 171 181 198 193 182 183 186 188 182 170 170 180 204 225 194 171 152 146 144 138 132 120 118 96
329 346 0 48 108 110 104 110 107 118 120 120 140 137 135 138 145 156 161 169 161 150 147 147 150 154 158 161 160 161 162 157 155 160 168 166 169 178 189 193 195 194 171 169 175 188 190 174 176 180 182 189 205 193 175 164 165 164 146 105 116 140 120
309 335 323 338 74 108 110 115 124 137 142 147 162 146 139 146 161 167 167 165 166 149 144 145 150 150 148 151 154 164 171 164 171 168 159 164 170 187 193 155 115 153 180 194 192 187 192 183 185 185 184 184 168 176 177 177 183 196 184 164 166 146 119
192 235 245 170 157 141 156 150 147 154 151 153 159 142 143 157 169 174 171 162 143 136 132 131 128 132 145 157 160 169 182 183 178 161 145 98 72 64 53 40 83 151 143 355 195 205 186 188 197 190 175 163 162 168 177 186 203 212 176 171 165 149 149
167 155 183 193 167 153 143 140 137 144 144 153 158 153 154 160 165 165 163 147 145 144 144 149 151 155 165 176 182 182 170 132 124 111 114 115 113 113 75 55 59 25 113 157 344 314 284 243 203 182 149 129 109 165 178 193 197 135 138 142 140 152 160
13 6 26 76 80 96 122 139 143 142 154 162 165 162 159 160 160 160 161 157 159 161 162 160 161 174 183 187 172 162 172 137 118 133 122 132 140 132 133 133 80 61 55 51 25 359 339 203 216 151 156 149 134 61 55 100 118 131 137 141 157 165 175
4 2 2 109 154 175 166 166 162 165 163 165 165 164 161 166 172 173 173 175 178 171 168 173 168 174 182 161 163 154 139 120 133 133 133 134 143 147 147 136 126 83 49 44 36 37 40 52 101 116 117 123 126 126 64 85 115 131 142 153 161 172 176